Showing default

DMSP 5D-3 F19 (USA 249), 39630

Orbit data source: Space-Track

DMSP 5D-3 F19 (USA 249), 39630 is a payload satellite owned by USAF SMC (US) in SSO that was launched on Thu, 03 Apr 2014 UTC via an ATLAS V 401 launch vehicle from the Air Force Western Test Range (AFWTR). Payload-class satellites include a variety of spacecraft equipped with specific instruments for various scientific and technological missions. These include communications satellites like Starlink; space stations such as the ISS; scientific satellites like the Hubble; Earth observation satellites from companies like Planet Labs, Umbra, and HawkEye 360; GPS; miniature CubeSats for education and research; and military/defense satellites.

Loading next visibility...
Identifier
39630, 2014-015A
Orbit
SSO
Country
Flag of USUS
Related business
Manufacturer
LMEW/LMSS
Mission
Non-operational Defense Weather
Bus & Motor
BLOCK 5D, Unknown motor
Mass
~1,217 kg wet, ~1,217 kg dry
Launch date (UTC)
2014-04-03 (12 years ago)
Launch vehicle
ATLAS V 401
Launch site
Air Force Western Test Range (AFWTR)
Object type
Payload
Rocket body
Debris
Shape & HBR
Box + 1 Pan, 4.1 m
Radar Cross Section
6.715 m², Large (>1 m²)

Expand to show TLE details & history
Last TLE update: 2 days ago

TLE from 2 days ago
0 DMSP 5D-3 F19 (USA 249)
1 39630U 14015A   26171.41071457  .00000093  00000-0  70563-4 0  9995
2 39630  98.7815 171.2671 0009992 193.6144 166.4761 14.14980516630451
Epoch: 2026-06-20T09:51Z
TLE epoch observation values (Epoch: 2026-06-20T09:51:25.738Z)
Latitude
-0.00008°
Longitude
114.78414°
Altitude
852.3 km
Speed
7.423 km/s
True Right ascension
11h 25m 04s
True Declination
0° 00' 00"
Sunlit
Object was in daylight at epoch
Visualization orbit readout
Latitude
Unknown
Longitude
Unknown
Altitude
Unknown
Speed
Unknown
Apparent Right ascension
Unknown
Apparent Declination
Unknown
Sunlit
N/A
Visualization observer readout
Local Sidereal Time
23:09:07
Azimuth
Unknown
Elevation
Unknown
Doppler factor
Unknown
Orbital elements
Apogee altitude
846.759 km
Perigee altitude
832.335 km
Semi-major axis
7,217.684 km
Eccentricity
0.001
Inclination
98.7815°
RAAN
171.2671°
Arg. of periapsis
193.6144°
True anomaly
166.50284°
Mean anomaly
166.4761°
Eccentric anomaly
166.48947°
Mean motion
3.53954 °/min
Orbital period
101.71 mins
BSTAR
0.000070563
Loading maneuver chart data...
Computing Atmospheric mass density...
Loading historical data...
Loading historical data...
Loading historical data...
Loading historical data...
Loading historical data...
Loading historical data...
Loading historical data...

Documentation

Showing up to 5 results
|